Content
SEND FEEDBACK

Daily
Averages
Monthly
Summary
United States of America

GRASS VALLEY, CALIFORNIA


Home > North America > United States > California
Elevation: 2628 feet     Latitude: 39 16N     Longitude: 121 02W

WEATHER
 
SELECT A DAY
Number of Records: 61,556;   Date Range: 9/21/11 - 8/29/14
 
SHARE

PRINT THIS DATA

[ ← Previous Day ]
WEATHER ALMANAC - MARCH 16, 2013
[ Next Day → ]
[ °C ]   °F
Weather ElementAverageHighLow
Temperature57 °F64.4 °F (11:55 am)50 °F (6:55 am)
Dewpoint32.7 °F41 °F (12:35 am)21.2 °F (3:55 pm)
Humidity41.5 %62 % (2:55 am)19 % (3:55 pm)
Barometer30.07 in30.10 in (12:35 am)30.05 in (5:15 am)
Wind Speed2.1 mph10.4 mph (3:15 pm)
Wind Gust16.1 mph (12:35 pm)
Weather ElementAverage
Visibility10 mi
Wind DirectionE (86.5 °)

Weather ElementTotal
Precipitation---
Heating Degree Days7.8 (Base 65)
Growing Degree Days7.2 (Base 50)
Averaged from 69 records on March 16, 2013
WEATHER CONDITIONS BREAKOUT
WIND DIRECTION BREAKOUT
WEATHER BY HOUR - MARCH 16, 2013
[ °C ]   °F
Local TimeTemperatureDewpointHumidityBarometerVisibilityWind DirectionWind SpeedGust SpeedPrecipitationEventsConditions
12:35 AM55.4 °F41.0 °F58 %30.10 in10.0 miNorth (350°)4.6 mphClear
12:55 AM55.4 °F41.0 °F58 %30.10 in10.0 miCalmClear
1:15 AM55.4 °F41.0 °F58 %30.09 in10.0 miCalmClear
1:35 AM55.4 °F41.0 °F58 %30.08 in10.0 miCalmClear
1:55 AM55.4 °F39.2 °F54 %30.08 in10.0 miCalmClear
2:15 AM53.6 °F39.2 °F58 %30.08 in10.0 miCalmClear
2:35 AM53.6 °F39.2 °F58 %30.08 in10.0 miCalmClear
2:55 AM51.8 °F39.2 °F62 %30.08 in10.0 miNorth (360°)3.5 mphClear
3:35 AM53.6 °F37.4 °F54 %30.07 in10.0 miCalmClear
3:55 AM51.8 °F37.4 °F58 %30.07 in10.0 miCalmClear
4:15 AM53.6 °F35.6 °F51 %30.07 in10.0 miCalmClear
4:35 AM53.6 °F33.8 °F47 %30.06 in10.0 miCalmClear
4:55 AM53.6 °F32.0 °F44 %30.06 in10.0 miCalmClear
5:15 AM53.6 °F32.0 °F44 %30.05 in10.0 miCalmClear
5:35 AM53.6 °F32.0 °F44 %30.05 in10.0 miCalmClear
5:55 AM51.8 °F32.0 °F47 %30.05 in10.0 miCalmClear
6:15 AM53.6 °F32.0 °F44 %30.06 in10.0 miCalmClear
6:35 AM51.8 °F32.0 °F47 %30.06 in10.0 miCalmClear
6:55 AM50.0 °F32.0 °F50 %30.05 in10.0 miCalmClear
7:15 AM51.8 °F32.0 °F47 %30.05 in10.0 miEast (100°)3.5 mphClear
7:35 AM51.8 °F32.0 °F47 %30.06 in10.0 miCalmClear
7:55 AM53.6 °F32.0 °F44 %30.06 in10.0 miCalmClear
8:15 AM53.6 °F33.8 °F47 %30.07 in10.0 miCalmClear
8:35 AM53.6 °F35.6 °F51 %30.08 in10.0 miCalmClear
8:55 AM55.4 °F35.6 °F47 %30.09 in10.0 miCalmClear
9:15 AM57.2 °F32.0 °F38 %30.10 in10.0 miSW (220°)3.5 mphClear
9:35 AM57.2 °F33.8 °F41 %30.10 in10.0 miCalmClear
9:55 AM57.2 °F32.0 °F38 %30.10 in10.0 miCalmClear
10:15 AM59.0 °F32.0 °F36 %30.10 in10.0 miCalmClear
10:35 AM59.0 °F35.6 °F42 %30.09 in10.0 miCalmClear
10:55 AM60.8 °F37.4 °F42 %30.09 in10.0 miCalmClear
11:15 AM62.6 °F37.4 °F39 %30.09 in10.0 miCalmClear
11:35 AM62.6 °F35.6 °F37 %30.09 in10.0 miCalmClear
11:55 AM64.4 °F33.8 °F32 %30.09 in10.0 miCalmClear
12:15 PM64.4 °F32.0 °F30 %30.09 in10.0 miWNW (290°)3.5 mphClear
12:35 PM64.4 °F37.4 °F37 %30.09 in10.0 miWest (260°)9.2 mph16.1 mphPartly Cloudy
12:55 PM62.6 °F41.0 °F45 %30.09 in10.0 miWest (260°)9.2 mphPartly Cloudy
1:15 PM62.6 °F41.0 °F45 %30.09 in10.0 miWest (270°)9.2 mphPartly Cloudy
1:35 PM62.6 °F32.0 °F32 %30.08 in10.0 miWest (270°)8.1 mphClear
1:55 PM62.6 °F32.0 °F32 %30.08 in10.0 miWNW (290°)5.8 mphClear
2:15 PM62.6 °F28.4 °F27 %30.06 in10.0 miWNW (300°)4.6 mphClear
2:35 PM64.4 °F23.0 °F21 %30.06 in10.0 miWest (260°)6.9 mphPartly Cloudy
2:55 PM64.4 °F23.0 °F21 %30.06 in10.0 miWest (270°)6.9 mphClear
3:15 PM64.4 °F23.0 °F21 %30.05 in10.0 miSW (220°)10.4 mphPartly Cloudy
3:35 PM62.6 °F24.8 °F24 %30.06 in10.0 miWest (260°)6.9 mphPartly Cloudy
3:55 PM64.4 °F21.2 °F19 %30.06 in10.0 miWest (260°)9.2 mphScattered Clouds
4:15 PM64.4 °F21.2 °F19 %30.06 in10.0 miWest (260°)8.1 mphPartly Cloudy
4:35 PM62.6 °F24.8 °F24 %30.06 in10.0 miWNW (290°)9.2 mphClear
4:55 PM62.6 °F26.6 °F26 %30.06 in10.0 miNW (310°)4.6 mphPartly Cloudy
5:15 PM62.6 °F24.8 °F24 %30.06 in10.0 miWNW (290°)4.6 mphPartly Cloudy
5:35 PM60.8 °F26.6 °F27 %30.06 in10.0 miWNW (290°)5.8 mphClear
5:55 PM60.8 °F28.4 °F29 %30.06 in10.0 miCalmClear
6:15 PM59.0 °F32.0 °F36 %30.06 in10.0 miWNW (290°)5.8 mphClear
6:35 PM59.0 °F32.0 °F36 %30.06 in10.0 miCalmClear
6:55 PM59.0 °F32.0 °F36 %30.05 in10.0 miCalmClear
7:15 PM57.2 °F32.0 °F38 %30.05 in10.0 miCalmClear
7:35 PM55.4 °F35.6 °F47 %30.05 in10.0 miCalmClear
7:55 PM53.6 °F37.4 °F54 %30.06 in10.0 miCalmClear
8:15 PM53.6 °F35.6 °F51 %30.06 in10.0 miCalmClear
8:35 PM53.6 °F35.6 °F51 %30.07 in10.0 miCalmClear
8:55 PM53.6 °F32.0 °F44 %30.07 in10.0 miCalmClear
9:15 PM53.6 °F30.2 °F41 %30.07 in10.0 miCalmClear
9:35 PM53.6 °F30.2 °F41 %30.08 in10.0 miCalmClear
9:55 PM53.6 °F26.6 °F35 %30.09 in9.0 miCalmClear
10:35 PM55.4 °F28.4 °F36 %30.10 in10.0 miCalmClear
10:55 PM53.6 °F32.0 °F44 %30.10 in10.0 miCalmClear
11:15 PM50.0 °F32.0 °F50 %30.09 in10.0 miCalmClear
11:35 PM50.0 °F32.0 °F50 %30.10 in10.0 miCalmClear
11:55 PM50.0 °F32.0 °F50 %30.10 in10.0 miCalmClear
Hourly data recorded from KGOO, located miles away from Grass Valley, California







STORIES FROM OUR PARTNERS